Printer-friendly version

IAU Minor Planet Center

Minor Planet Center

MPEC 2007-E03 : COMET C/2006 XA1 (LINEAR)

The following Minor Planet Electronic Circular may be linked-to from your own Web pages, but must not otherwise be redistributed electronically.


Read MPEC 2007-E02 Read MPEC 2007-E04


M.P.E.C. 2007-E03                                Issued 2007 Mar. 2, 16:06 UT

     The Minor Planet Electronic Circulars contain information on unusual
         minor planets and routine data on comets.  They are published
   on behalf of Commission 20 of the International Astronomical Union by the
          Minor Planet Center, Smithsonian Astrophysical Observatory,
                          Cambridge, MA 02138, U.S.A.

             Prepared using the Tamkin Foundation Computer Network

                              MPC@CFA.HARVARD.EDU
          URL http://cfa-www.harvard.edu/iau/mpc.html  ISSN 1523-6714

                           COMET C/2006 XA1 (LINEAR)

Observations:
    CK06X01A  C2007 02 26.42729 03 17 14.62 +45 37 49.1          16.3 N EE003379
    CK06X01A  C2007 02 26.42875 03 17 14.77 +45 37 48.7                 EE003379
    CK06X01A  C2007 02 26.43461 03 17 15.39 +45 37 46.2                 EE003379
    CK06X01A  C2007 02 26.82799 03 17 56.30 +45 34 35.4          15.8 N EE003213
    CK06X01A  C2007 02 26.82990 03 17 56.50 +45 34 34.9          15.8 N EE003213
    CK06X01A  C2007 02 26.83180 03 17 56.67 +45 34 34.1          15.8 N EE003213
    CK06X01A  C2007 02 27.83196 03 19 41.78 +45 26 33.9          18.2 N EE003J70
    CK06X01A  C2007 02 27.83853 03 19 42.43 +45 26 29.6          15.7 N EE003J70
    CK06X01A  C2007 02 27.84447 03 19 42.94 +45 26 26.8          16.0 N EE003J70
    CK06X01A  C2007 02 28.13843 03 20 14.07 +45 24 06.4          16.6 N EE003850
    CK06X01A  C2007 02 28.16840 03 20 17.22 +45 23 51.8          16.4 N EE003850
    CK06X01A  C2007 03 01.50865 03 22 40.46 +45 13 14.3                 EE003D88
    CK06X01A  C2007 03 01.51183 03 22 40.84 +45 13 12.4                 EE003D88
    CK06X01A  C2007 03 01.51501 03 22 41.19 +45 13 11.3          15.4 T EE003D88

Observer details:
213 Observatorio Montcabre.  Observer R. Naves.  Measurer M. Campas.  0.30-m
    f/10 Schmidt-Cassegrain + CCD.
379 Hamamatsu-Yuto.  Observer S. Wakuda.  0.25-m f/5.0 Schmidt-Cassegrain
    + CCD.
850 Cordell-Lorenz Observatory, Sewanee.  Observer D. T. Durig.  0.30-m f/9.7
    Schmidt-Cassegrain + CCD.
D88 Hiratsuka.  Observer Y. Sugiyama.  0.25-m f/5.0 reflector + CCD.
J70 Obs. Astronomico Vega del Thader, El Palmar.  Observer J. P. Navarro P.
    0.20-m Schmidt-Cassegrain + CCD.

Orbital elements:
    C/2006 XA1 (LINEAR)
Epoch 2007 Aug. 8.0 TT = JDT 2454320.5
T 2007 July 21.89408 TT                                 MPC
q   1.8042896            (2000.0)            P               Q
z  +0.0040378      Peri.  187.42034     -0.81795821     -0.46658989
 +/-0.0000241      Node   318.66398     +0.55051679     -0.46509872
e   0.9927147      Incl.   30.63028     +0.16695994     -0.75231447
Residuals in seconds of arc
061209 704  1.5+  0.0     070110 673  0.0   0.2-    070130 D88  0.7+  0.3-
061209 704  1.2+  0.3-    070110 673  0.1+  0.1-    070130 D88  0.5+  0.1+
061209 704  0.0   0.0     070110 673  0.2+  0.3-    070130 349  0.3+  0.3-
061209 704  1.0+  0.1+    070110 701  0.2-  0.8-    070130 349  0.2+  0.3-
061209 704  0.5-  0.4+    070110 H06  1.3-  0.4-    070130 349  0.2+  0.1-
061211 704  0.1+  0.3+    070110 H06 (1.7-  2.5-)   070203 D88  0.8+  0.5+
061211 704  1.7-  0.2+    070110 349  0.2-  0.1-    070203 D88  0.4+  0.6+
061211 704  0.5-  0.0     070110 349  0.1-  0.3-    070203 D88  0.6+  0.3+
061211 704  0.5-  0.2-    070110 349  0.1+  0.1-    070203 232  0.2+  0.2+
070108 704  0.1-  0.1-    070111 372  0.3-  0.0     070203 232  0.2+  0.0
070108 704  1.3-  0.2-    070111 372  0.3-  0.1-    070203 232  1.9-  0.0
070108 704  0.3-  0.2-    070112 D88  0.7+  0.6+    070203 204  0.1+  0.1-
070108 704  0.2-  0.0     070112 D88  0.6+  1.0+    070203 204  0.1+  0.3-
070108 704 (3.8-  1.2+)   070112 349  0.3-  0.4+    070204 D88  0.3-  0.2+
070109 H87  0.5-  0.6-    070112 349  0.5-  0.5+    070204 D88  0.2+  0.1+
070109 H87  0.2-  0.4-    070112 349  0.6-  0.3+    070204 D88  0.4+  0.4+
070109 704  0.6+  0.4+    070112 104  0.4-  0.7+    070204 349  0.0   0.3+
070109 704  0.4+  0.9+    070112 104  0.2-  0.2+    070204 349  0.2+  0.4+
070109 704 (1.7+  2.2+)   070112 104  0.2-  0.2+    070204 349  0.2+  0.2+
070109 704  1.3+  1.4+    070112 213  0.1+  0.3-    070208 704  0.2+  0.9+
070109 704 (3.7+  1.4-)   070112 213  0.1-  0.3-    070208 704  0.1+  1.0+
070109 704 (2.6+  1.5-)   070112 213  0.0   0.2-    070208 704  0.2-  0.4+
070109 701 (8.4-  2.5-)   070112 130  0.4-  0.8+    070208 704  0.6-  0.1+
070109 704  0.2+  0.2-    070112 130  0.2+  0.5-    070208 704  0.5+  0.1+
070109 704  0.1+  0.3-    070112 130  0.7+  0.6-    070208 673  0.0   0.2-
070109 734  0.3-  0.2+    070113 147  0.4-  0.5-    070208 673  0.2+  0.1-
070109 704  1.9+  1.6+    070113 147  0.5+  0.3-    070208 673  0.4+  0.2-
070109 704  1.0+  0.2+    070113 147  0.4+  0.7-    070208 673  0.3+  0.3-
070109 701 (0.2+  2.5-)   070113 A06  0.4+  0.2+    070209 213  0.2-  0.3-
070109 734  0.6-  0.1+    070113 A06  0.2+  0.7-    070209 213  0.1+  0.6-
070109 H87  0.1-  0.5+    070113 215  0.5-  0.7+    070209 213  0.1-  0.2-
070109 734  0.4-  0.6-    070113 204  0.1+  0.1-    070210 232  0.9+  0.2+
070109 734  0.1+  0.3+    070114 704  0.0   0.5+    070210 232  0.6+  0.2+
070109 734  0.2+  0.2-    070114 704  0.0   0.2+    070210 232  0.1+  0.1+
070109 701  0.5-  0.2-    070114 704  0.1+  0.6-    070212 D88  0.1-  0.1-
070109 701 (0.6-  4.1-)   070114 704  0.2+  0.3-    070212 D88  0.5-  0.1+
070109 854  0.1-  0.2+    070114 704  0.5+  0.2-    070212 D88  0.5-  0.4-
070109 854  0.1-  0.1-    070114 372  1.1+  0.6-    070212 349  0.1+  0.1-
070109 854  0.2-  0.2-    070114 A41  0.2+  0.4-    070212 349  0.1+  0.3-
070109 300  0.2-  0.3+    070114 A41  0.0   0.1-    070212 349  0.2+  0.3-
070109 300  0.2+  0.1-    070115 561  0.1-  0.1-    070212 J97  0.4-  0.3+
070109 300  0.5-  0.4-    070115 561  0.2+  0.2+    070212 J97  0.3-  0.1+
070109 300  0.2+  0.1-    070115 561  0.2+  0.0     070212 J97  0.0   0.7-
070109 300  0.1+  0.0     070115 561  0.0   0.1+    070213 379  0.1-  0.2+
070109 300  0.2-  0.3+    070116 J70 (4.5+ 12.6-)   070213 379  0.4+  0.0
070109 143  0.4-  0.1+    070116 J70 (0.3- 11.2-)   070213 379  0.4-  0.6+
070109 143  0.3-  0.1+    070116 J70 (1.2+  4.9-)   070213 379  0.2+  0.6+
070109 143  0.2-  0.1+    070118 J70  0.6+  1.4-    070214 J70  1.2+  0.6+
070109 143  0.2-  0.1+    070118 J70  0.4-  0.1+    070214 J70  0.3+  1.1-
070109 A06  0.5-  0.6+    070118 J70  0.0   0.5+    070214 J70  1.3+  1.1-
070109 A06  0.1+  0.0     070119 213  0.7-  0.3-    070218 379  0.0   0.1-
070110 H51  0.4+  0.3+    070119 213  0.1+  0.2+    070218 379  0.3+  0.3+
070110 H51  0.3+  0.1+    070119 213  0.1+  0.4-    070218 379  0.3+  0.5-
070110 H51  0.0   0.3-    070119 J76  0.1-  0.2-    070218 379  0.1+  0.0
070110 H51  1.3+  1.4-    070119 J76  0.1-  0.3-    070218 379  0.1-  0.2-
070110 704  0.3+  0.2-    070119 J76  0.1+  0.3-    070218 215  1.2+  2.0+
070110 704  0.2+  0.2-    070120 232  0.5-  0.1+    070218 215 (0.8+  2.2+)
070110 704  0.3-  0.3-    070120 232  0.1-  0.1+    070218 215 (0.3+  2.6+)
070110 704  0.2+  0.5-    070120 232  0.4-  0.0     070220 704 (1.5-  2.2+)
070110 704  0.5-  0.4-    070120 J76  0.4+  0.2+    070220 704  0.2-  0.2+
070110 704  0.1+  0.0     070120 J76  0.3+  0.1-    070220 704  0.4-  0.0
070110 704  0.2+  0.0     070120 J76  0.4+  0.2-    070220 704  1.3-  0.2-
070110 H87 (0.5+  2.2-)   070122 379  0.2-  0.5+    070220 704  0.5-  0.1+
070110 704  0.7-  1.0-    070122 379  0.3-  0.5+    070226 379  0.4-  0.7-
070110 704  1.1+  1.9-    070122 379  0.9-  0.5+    070226 379  0.4-  0.4-
070110 H87 (1.2-  3.6+)   070124 379  0.1+  1.7+    070226 379  0.1-  0.0
070110 734  0.1+  0.2-    070124 379  0.9-  1.3+    070226 213  0.2-  0.3-
070110 734  0.2-  0.1-    070124 379  0.3-  1.1+    070226 213  0.2-  0.1+
070110 H87  0.2+  0.0     070125 D88  0.0   0.1+    070226 213  0.4-  0.2+
070110 701  0.2-  1.7+    070125 D88  0.6-  0.6+    070227 J70  1.0+  0.4+
070110 734  0.5-  0.1-    070125 D88  0.3-  0.5+    070227 J70  0.7+  0.7-
070110 854  0.4-  0.1-    070127 D88  1.0-  0.0     070227 J70  0.5-  0.6-
070110 H87  0.6-  0.5-    070127 D88  1.0-  0.1-    070228 850  0.3+  0.1+
070110 854  0.0   0.1-    070127 D88  0.7-  0.5+    070228 850  0.1+  0.2+
070110 701 (2.5+  1.0-)   070127 232  0.2-  0.5-    070301 D88  0.9-  0.2-
070110 854  0.0   0.1+    070127 232  0.4+  0.2-    070301 D88  0.4-  0.5-
070110 701  0.1+  0.1+    070127 232  0.4+  0.5-    070301 D88  0.3-  0.1-
070110 673  0.0   0.4-    070130 D88  0.2+  0.7-

     The "original" and "future" barycentric values of 1/a are +0.003833
and +0.004455 (+/- 0.000024) AU^-1, respectively.

Brian G. Marsden             (C) Copyright 2007 MPC           M.P.E.C. 2007-E03

Read MPEC 2007-E02 Read MPEC 2007-E04


Our Web policy. Index to the CBAT/MPC/ICQ pages.


Valid HTML 4.01!